DW1009 Weather Reports


Display with metric or nautical units.
time (UTC)temp
F
wind
direction
speed
MPH
gust
MPH
rain 1hr
in
rain 24hr
in
rain mn
in
humidity
%
barometer
mb
20260901104137 67 323 0.0 2.0 0.00 0.00 0.00 89 1012.2
20260901103137 67 273 0.0 1.0 0.00 0.00 0.00 88 1012.0
20260901102136 67 273 1.0 2.0 0.00 0.00 0.00 88 1012.0
20260901101137 67 273 1.0 2.0 0.00 0.00 0.00 88 1012.1
20260901100137 67 309 0.0 2.0 0.00 0.00 0.00 88 1012.1
20260901095137 67 299 0.0 3.0 0.00 0.00 0.00 88 1012.1
20260901094137 67 330 1.0 3.0 0.00 0.00 0.00 88 1012.2
20260901093136 67 317 0.0 2.0 0.00 0.00 0.00 87 1012.1
20260901092137 67 290 1.0 3.0 0.00 0.00 0.00 87 1012.2
20260901091136 67 345 0.0 3.0 0.00 0.00 0.00 88 1012.2
20260901085137 67 241 0.0 3.0 0.00 0.00 0.00 88 1012.4
20260901084136 67 298 0.0 3.0 0.00 0.00 0.00 88 1012.5
20260901083136 67 260 1.0 3.0 0.00 0.00 0.00 88 1012.5
20260901082136 67 205 0.0 4.0 0.00 0.00 0.00 88 1012.2
20260901081137 67 210 0.0 3.0 0.00 0.00 0.00 88 1012.2
20260901080137 67 226 0.0 2.0 0.00 0.00 0.00 88 1012.2
20260901075136 67 197 0.0 2.0 0.00 0.00 0.00 87 1012.2
20260901074136 67 213 1.0 3.0 0.00 0.00 0.00 88 1012.1
20260901073136 68 204 3.0 3.0 0.00 0.00 0.00 88 1012.1
20260901072136 68 250 1.0 4.0 0.00 0.00 0.00 88 1012.2
20260901070136 68 248 2.0 8.0 0.00 0.00 0.00 88 1012.2
20260901065136 68 251 1.0 5.0 0.00 0.00 0.00 88 1012.1
20260901064136 68 161 0.0 3.0 0.00 0.00 0.00 88 1011.9
20260901063136 68 213 1.0 3.0 0.00 0.00 0.00 88 1011.7
20260901062136 68 323 1.0 4.0 0.00 0.00 0.00 88 1011.6
20260901061136 68 238 0.0 5.0 0.00 0.00 0.00 87 1011.5
20260901060136 68 303 2.0 4.0 0.00 0.00 0.00 87 1011.4
20260901055136 69 277 3.0 6.0 0.00 0.00 0.00 87 1011.5
20260901054136 69 292 2.0 6.0 0.00 0.00 0.00 87 1011.6
20260901053136 69 325 2.0 4.0 0.00 0.00 0.00 88 1011.7
20260901052136 69 286 0.0 3.0 0.00 0.00 0.00 88 1011.5
20260901045136 69 263 0.0 5.0 0.00 0.00 0.00 88 1011.5
20260901044136 69 286 1.0 5.0 0.00 0.00 0.00 88 1011.5
20260901043135 69 221 1.0 4.0 0.00 0.00 0.00 88 1011.5
20260901042136 69 290 2.0 6.0 0.00 0.00 0.00 88 1011.4
20260901041136 69 275 1.0 4.0 0.00 0.00 0.00 89 1011.3
20260901040136 69 292 1.0 4.0 0.00 0.00 0.00 89 1011.0
20260901035136 69 321 0.0 6.0 0.00 0.00 0.00 88 1011.0
20260901034136 69 232 1.0 4.0 0.00 0.00 0.00 88 1010.7
20260901031136 70 238 3.0 4.0 0.00 0.00 0.00 86 1010.3
20260901025136 70 309 1.0 4.0 0.00 0.00 0.00 85 1010.4
20260901024136 70 355 2.0 8.0 0.00 0.00 0.00 85 1010.1
20260901022136 71 257 2.0 5.0 0.00 0.00 0.00 84 1010.3
20260901021136 71 250 2.0 8.0 0.00 0.00 0.00 83 1010.3
20260901020136 72 252 3.0 8.0 0.00 0.00 0.00 82 1010.2
20260901015137 73 243 1.0 7.0 0.00 0.00 0.00 82 1010.3
20260901014135 73 31 1.0 8.0 0.00 0.00 0.00 81 1010.2
20260901012135 74 275 4.0 8.0 0.00 0.00 0.00 80 1010.3
20260901010135 76 240 4.0 5.0 0.00 0.00 0.00 78 1010.4
20260901003136 76 24 1.0 8.0 0.00 0.00 0.00 78 1010.5
20260901002136 77 263 2.0 8.0 0.00 0.00 0.00 77 1010.4
20260901001135 77 293 3.0 9.0 0.00 0.00 0.00 77 1010.6
20260901000135 77 201 5.0 9.0 0.00 0.00 0.00 76 1010.6
20260831234136 77 265 7.0 9.0 0.00 0.00 0.00 77 1010.6
20260831233136 78 205 4.0 11.0 0.00 0.00 0.00 75 1010.7
20260831231135 79 286 4.0 10.0 0.00 0.00 0.00 74 1010.6
20260831230135 78 218 4.0 9.0 0.00 0.00 0.00 75 1010.5
20260831225136 78 233 3.0 8.0 0.00 0.00 0.00 75 1010.7
20260831223135 78 298 1.0 8.0 0.00 0.00 0.00 76 1010.9
20260831222135 78 255 8.0 11.0 0.00 0.00 0.00 75 1010.9
20260831221135 78 288 5.0 9.0 0.00 0.00 0.00 73 1011.1
20260831215136 78 250 2.0 10.0 0.00 0.00 0.00 75 1011.3
20260831214135 78 246 2.0 9.0 0.00 0.00 0.00 74 1011.2
20260831213135 78 240 8.0 8.0 0.00 0.00 0.00 73 1011.3
20260831212135 78 238 4.0 8.0 0.00 0.00 0.00 74 1011.4
20260831211135 78 254 3.0 11.0 0.00 0.00 0.00 73 1011.5
20260831210135 78 313 3.0 10.0 0.00 0.00 0.00 73 1011.7
20260831205135 79 268 3.0 8.0 0.00 0.00 0.00 73 1011.6
20260831204135 78 209 6.0 10.0 0.00 0.00 0.00 73 1011.6
20260831202135 78 235 2.0 9.0 0.00 0.00 0.00 74 1011.7
20260831201135 78 284 3.0 11.0 0.00 0.00 0.00 74 1011.8
20260831200135 78 241 3.0 9.0 0.00 0.00 0.00 74 1011.8
20260831195135 78 227 3.0 9.0 0.00 0.00 0.00 73 1011.8
20260831194135 78 223 4.0 8.0 0.00 0.00 0.00 73 1011.9
20260831193135 78 296 4.0 7.0 0.00 0.00 0.00 74 1012.1
20260831192135 78 286 3.0 8.0 0.00 0.00 0.00 75 1012.1
20260831191135 77 219 4.0 9.0 0.00 0.00 0.00 74 1012.1
20260831190135 77 270 3.0 6.0 0.00 0.00 0.00 75 1012.1
20260831185135 77 241 5.0 10.0 0.00 0.00 0.00 75 1012.2
20260831184135 77 246 3.0 8.0 0.00 0.00 0.00 76 1012.1
20260831183135 77 269 6.0 9.0 0.00 0.00 0.00 76 1012.0
20260831182135 77 169 2.0 6.0 0.00 0.00 0.00 76 1011.9
20260831181135 77 207 1.0 6.0 0.00 0.00 0.00 76 1011.9
20260831180135 76 213 3.0 5.0 0.00 0.00 0.00 78 1011.9
20260831175135 77 265 3.0 7.0 0.00 0.00 0.00 77 1011.6
20260831174135 76 228 3.0 6.0 0.00 0.00 0.00 77 1011.8
20260831172135 75 219 5.0 7.0 0.00 0.00 0.00 80 1011.8
20260831171135 75 276 6.0 7.0 0.00 0.00 0.00 80 1011.8
20260831170135 75 199 4.0 8.0 0.00 0.00 0.00 81 1011.6
20260831165136 74 196 4.0 8.0 0.00 0.00 0.00 83 1011.5
20260831164135 74 189 5.0 8.0 0.00 0.00 0.00 83 1011.4
20260831163134 75 228 6.0 7.0 0.00 0.00 0.00 82 1011.3
20260831162135 74 173 3.0 5.0 0.00 0.00 0.00 82 1011.2
20260831160135 73 176 0.0 6.0 0.00 0.00 0.00 84 1011.2
20260831154135 72 227 4.0 4.0 0.00 0.00 0.00 87 1011.1
20260831153134 72 207 1.0 3.0 0.00 0.00 0.00 87 1011.1
20260831151135 71 207 0.0 2.0 0.00 0.00 0.00 89 1011.0
20260831150134 70 200 1.0 3.0 0.00 0.00 0.00 91 1010.9
20260831145134 69 215 0.0 2.0 0.00 0.00 0.00 93 1010.9
20260831144134 69 234 0.0 0.0 0.00 0.00 0.00 94 1010.8
20260831143135 68 234 0.0 0.0 0.00 0.00 0.00 94 1010.7
20260831142135 67 234 0.0 0.0 0.00 0.00 0.00 94 1010.6
20260831141134 66 234 0.0 1.0 0.00 0.00 0.00 94 1010.2
20260831140134 66 234 0.0 2.0 0.00 0.00 0.00 93 1010.2
20260831135134 66 234 0.0 0.0 0.00 0.00 0.00 93 1010.1
20260831133134 66 234 0.0 0.0 0.00 0.00 0.00 92 1010.0
20260831132134 67 234 0.0 2.0 0.00 0.00 0.00 92 1010.0
20260831130134 67 234 0.0 2.0 0.00 0.00 0.00 92 1009.9
20260831125134 68 234 0.0 2.0 0.00 0.00 0.00 91 1009.9
20260831124134 68 234 0.0 0.0 0.00 0.00 0.00 90 1009.9
20260831123135 68 234 0.0 0.0 0.00 0.00 0.00 90 1009.8
20260831122134 69 234 0.0 2.0 0.00 0.00 0.00 90 1009.9
20260831121134 69 234 0.0 2.0 0.00 0.00 0.00 90 1009.8
20260831120135 69 234 0.0 2.0 0.00 0.00 0.00 90 1009.8
20260831115134 69 234 0.0 0.0 0.00 0.00 0.00 89 1009.9
20260831114135 69 234 0.0 2.0 0.00 0.00 0.00 89 1009.9
20260831113135 69 174 0.0 2.0 0.00 0.00 0.00 89 1009.9
20260831112134 69 193 1.0 2.0 0.00 0.00 0.00 89 1009.9
20260831111135 69 252 1.0 2.0 0.00 0.00 0.00 89 1009.9